Eastsound, WA

10:37 AM PST on February 10, 2016 (GMT -0800)
Orcas Island

Weather History for KORS - January, 2013

Change the Weather History Date:

Monday, January 14, 2013

  Actual Average (KBLI) Record (KBLI)
Temperature  
Mean Temperature 35 °F 39 °F  
Max Temperature 35 °F 45 °F 62 °F (1968)
Min Temperature 35 °F 33 °F 10 °F (2007)
Degree Days  
Heating Degree Days 30 26  
Month to date heating degree days 370  
Cooling Degree Days 0 0  
Month to date cooling degree days 0  
Year to date cooling degree days 0  
Moisture  
Dew Point 32 °F    
Average Humidity 86    
Maximum Humidity 93    
Minimum Humidity 75    
Precipitation  
Precipitation 0.00 in 0.16 in 0.94 in (1996)
Month to date precipitation 2.14  
Year to date precipitation 2.14  
Sea Level Pressure  
Sea Level Pressure 30.49 in    
Wind  
Wind Speed 4 mph (South)    
Max Wind Speed 9 mph    
Max Gust Speed -    
Visibility 9 miles    
Events Rain    
T = Trace of Precipitation, MM = Missing Value Source: NWS Daily Summary

Daily Weather History Graph

Daily Weather History Graph

Search for Another Location

Airport or City:

Trip Planner

Search our weather history database for the weather conditions in past years. The results will help you decide how hot, cold, wet, or windy it might be!

Date:

Astronomy

Jan. 14, 2013 Rise Set
Actual Time 7:59 AM PST 4:42 PM PST
Civil Twilight 7:23 AM PST 5:18 PM PST
Nautical Twilight 6:44 AM PST 5:57 PM PST
Astronomical Twilight 6:06 AM PST 6:35 PM PST
Moon 9:15 AM PST (1/14) 8:57 PM PST (1/14)
Length of Visible Light 9h 54m
Length of Day
8h 42m
Waxing Crescent, 12% of the Moon is Illuminated
Jan 14
Waxing Crescent
Jan 18
First Quarter
Jan 26
Full
Feb 3
Last Quarter
Feb 9
New

Hourly Weather History & Observations

Time (PST) Temp. Windchill Dew Point Humidity Pressure Visibility Wind Dir Wind Speed Gust Speed Precip Events Conditions
12:15 AM 35.6 °F 30.7 °F 28.4 °F 75% 30.45 in 10.0 mi South 5.8 mph - N/A   Overcast
12:35 AM 35.6 °F 31.7 °F 30.2 °F 81% 30.46 in 10.0 mi SSW 4.6 mph - N/A   Overcast
12:55 AM 35.6 °F - 28.4 °F 75% 30.47 in 10.0 mi Calm Calm - N/A   Overcast
1:15 AM 35.6 °F - 28.4 °F 75% 30.46 in 10.0 mi Calm Calm - N/A   Overcast
1:35 AM 35.6 °F - 30.2 °F 81% 30.46 in 10.0 mi Calm Calm - N/A   Overcast
1:55 AM 35.6 °F - 30.2 °F 81% 30.47 in 10.0 mi Calm Calm - N/A   Overcast
2:15 AM 35.6 °F - 30.2 °F 81% 30.47 in 7.0 mi Calm Calm - N/A   Overcast
2:35 AM 35.6 °F - 30.2 °F 81% 30.46 in 10.0 mi Calm Calm - N/A   Overcast
2:55 AM 35.6 °F - 30.2 °F 81% 30.46 in 10.0 mi Calm Calm - N/A   Overcast
3:15 AM 35.6 °F 32.8 °F 28.4 °F 75% 30.46 in 10.0 mi South 3.5 mph - N/A   Overcast
3:55 AM 35.6 °F 32.8 °F 28.4 °F 75% 30.46 in 10.0 mi South 3.5 mph - N/A   Overcast
4:15 AM 35.6 °F 32.8 °F 28.4 °F 75% 30.46 in 10.0 mi South 3.5 mph - N/A   Overcast
4:35 AM 35.6 °F 32.8 °F 28.4 °F 75% 30.46 in 10.0 mi SSE 3.5 mph - N/A   Overcast
4:55 AM 35.6 °F 32.8 °F 28.4 °F 75% 30.45 in 10.0 mi South 3.5 mph - N/A   Overcast
5:15 AM 35.6 °F 31.7 °F 28.4 °F 75% 30.45 in 10.0 mi South 4.6 mph - N/A   Overcast
5:35 AM 35.6 °F 32.8 °F 28.4 °F 75% 30.46 in 10.0 mi SSE 3.5 mph - N/A   Overcast
5:55 AM 35.6 °F 32.8 °F 28.4 °F 75% 30.46 in 10.0 mi SSE 3.5 mph - N/A   Overcast
6:15 AM 35.6 °F - 30.2 °F 81% 30.45 in 10.0 mi Calm Calm - N/A   Overcast
6:55 AM 35.6 °F 30.7 °F 30.2 °F 81% 30.45 in 10.0 mi South 5.8 mph - N/A   Overcast
7:15 AM 35.6 °F 30.7 °F 30.2 °F 81% 30.45 in 10.0 mi South 5.8 mph - N/A   Overcast
7:35 AM 35.6 °F 31.7 °F 30.2 °F 81% 30.45 in 10.0 mi South 4.6 mph - N/A   Overcast
7:55 AM 35.6 °F 28.6 °F 32.0 °F 87% 30.46 in 10.0 mi South 9.2 mph - N/A   Overcast
8:15 AM 35.6 °F 29.9 °F 32.0 °F 87% 30.47 in 10.0 mi South 6.9 mph - N/A   Overcast
8:35 AM 35.6 °F 29.9 °F 32.0 °F 87% 30.47 in 10.0 mi South 6.9 mph - N/A   Overcast
8:55 AM 35.6 °F 29.9 °F 32.0 °F 87% 30.47 in 7.0 mi South 6.9 mph - N/A   Mostly Cloudy
9:15 AM 35.6 °F 30.7 °F 32.0 °F 87% 30.47 in 9.0 mi South 5.8 mph - N/A   Overcast
9:35 AM 35.6 °F 29.9 °F 32.0 °F 87% 30.47 in 10.0 mi South 6.9 mph - N/A   Overcast
9:55 AM 35.6 °F 29.2 °F 32.0 °F 87% 30.47 in 10.0 mi South 8.1 mph - N/A   Overcast
10:15 AM 35.6 °F 28.6 °F 32.0 °F 87% 30.47 in 8.0 mi South 9.2 mph - N/A   Overcast
10:35 AM 35.6 °F 29.9 °F 32.0 °F 87% 30.47 in 10.0 mi South 6.9 mph - N/A   Overcast
11:15 AM 35.6 °F 30.7 °F 32.0 °F 87% 30.47 in 10.0 mi South 5.8 mph - N/A   Overcast
11:35 AM 35.6 °F 31.7 °F 32.0 °F 87% 30.48 in 9.0 mi South 4.6 mph - N/A   Overcast
11:55 AM 35.6 °F 29.9 °F 32.0 °F 87% 30.48 in 7.0 mi South 6.9 mph - N/A   Overcast
12:15 PM 35.6 °F 29.2 °F 32.0 °F 87% 30.47 in 6.0 mi South 8.1 mph - N/A   Overcast
12:35 PM 35.6 °F 30.7 °F 32.0 °F 87% 30.48 in 8.0 mi South 5.8 mph - N/A   Mostly Cloudy
1:15 PM 35.6 °F 29.2 °F 32.0 °F 87% 30.47 in 8.0 mi South 8.1 mph - N/A   Mostly Cloudy
1:35 PM 35.6 °F 29.2 °F 32.0 °F 87% 30.47 in 9.0 mi South 8.1 mph - N/A   Mostly Cloudy
1:55 PM 35.6 °F 30.7 °F 32.0 °F 87% 30.48 in 6.0 mi South 5.8 mph - N/A   Scattered Clouds
2:35 PM 35.6 °F 30.7 °F 32.0 °F 87% 30.48 in 6.0 mi South 5.8 mph - N/A Rain Light Rain
2:55 PM 35.6 °F 29.2 °F 32.0 °F 87% 30.49 in 5.0 mi South 8.1 mph - N/A   Overcast
3:15 PM 35.6 °F 28.6 °F 32.0 °F 87% 30.49 in 9.0 mi South 9.2 mph - N/A   Overcast
3:35 PM 35.6 °F 28.6 °F 32.0 °F 87% 30.48 in 7.0 mi South 9.2 mph - N/A   Overcast
3:55 PM 35.6 °F 29.9 °F 32.0 °F 87% 30.49 in 10.0 mi South 6.9 mph - N/A   Overcast
4:15 PM 35.6 °F 31.7 °F 32.0 °F 87% 30.50 in 10.0 mi South 4.6 mph - N/A   Mostly Cloudy
4:35 PM 35.6 °F 31.7 °F 32.0 °F 87% 30.50 in 9.0 mi South 4.6 mph - N/A   Overcast
4:55 PM 35.6 °F 29.9 °F 32.0 °F 87% 30.50 in 7.0 mi South 6.9 mph - N/A   Mostly Cloudy
5:15 PM 35.6 °F 29.9 °F 32.0 °F 87% 30.50 in 7.0 mi South 6.9 mph - N/A   Scattered Clouds
5:35 PM 35.6 °F 31.7 °F 33.8 °F 93% 30.50 in 7.0 mi South 4.6 mph - N/A   Mostly Cloudy
6:15 PM 35.6 °F 31.7 °F 33.8 °F 93% 30.52 in 10.0 mi SSW 4.6 mph - N/A   Mostly Cloudy
6:35 PM 35.6 °F 32.8 °F 33.8 °F 93% 30.51 in 10.0 mi South 3.5 mph - N/A   Overcast
6:55 PM 35.6 °F - 33.8 °F 93% 30.52 in 10.0 mi Calm Calm - N/A   Overcast
7:15 PM 35.6 °F - 33.8 °F 93% 30.53 in 10.0 mi North - - N/A   Overcast
7:35 PM 35.6 °F - 33.8 °F 93% 30.53 in 10.0 mi Calm Calm - N/A   Mostly Cloudy
7:55 PM 35.6 °F - 33.8 °F 93% 30.54 in 10.0 mi Calm Calm - N/A   Overcast
8:15 PM 35.6 °F - 33.8 °F 93% 30.54 in 10.0 mi Calm Calm - N/A   Overcast
8:35 PM 35.6 °F - 33.8 °F 93% 30.54 in 10.0 mi Calm Calm - N/A   Overcast
8:55 PM 35.6 °F - 33.8 °F 93% 30.55 in 10.0 mi Calm Calm - N/A   Overcast
9:15 PM 35.6 °F - 33.8 °F 93% 30.55 in 10.0 mi Calm Calm - N/A   Overcast
9:55 PM 35.6 °F - 33.8 °F 93% 30.55 in 10.0 mi Calm Calm - N/A   Overcast
10:15 PM 35.6 °F - 33.8 °F 93% 30.55 in 10.0 mi Calm Calm - N/A   Overcast
10:35 PM 35.6 °F - 33.8 °F 93% 30.55 in 10.0 mi Calm Calm - N/A   Overcast
10:55 PM 35.6 °F - 33.8 °F 93% 30.55 in 9.0 mi Calm Calm - N/A   Overcast
11:15 PM 35.6 °F - 33.8 °F 93% 30.56 in 8.0 mi Calm Calm - N/A   Overcast
11:35 PM 35.6 °F - 33.8 °F 93% 30.56 in 8.0 mi Calm Calm - N/A   Overcast
11:55 PM 35.6 °F - 33.8 °F 93% 30.57 in 10.0 mi Calm Calm - N/A   Overcast